IV3NGF Weather Reports


time (UTC)temp
C
wind
direction
speed
KPH
gust
KPH
rain 1hr
cm
rain 24hr
cm
rain mn
cm
humidity
%
barometer
mb
20260505062017 13 0.0 0.0 0.00 0.00 0.00 83 1014.6
20260505061019 12 0.0 0.0 0.00 0.00 0.00 85 1014.5
20260505060019 12 0.0 0.0 0.00 0.00 0.00 85 1014.5
20260505055019 12 0.0 0.0 0.00 0.00 0.00 86 1014.4
20260505054017 11 0.0 0.0 0.00 0.00 0.00 86 1014.4
20260505053019 11 0.0 0.0 0.00 0.00 0.00 86 1014.5
20260505052019 11 0.0 0.0 0.00 0.00 0.00 86 1014.5
20260505051018 11 0.0 0.0 0.00 0.00 0.00 86 1014.3
20260505041019 10 0.0 0.0 0.00 0.00 0.00 88 1014.1
20260505040024 9 0.0 0.0 0.00 0.00 0.00 88 1014.2
20260505035019 9 135 1.6 4.8 0.00 0.00 0.00 88 1014.2
20260505034017 9 0.0 0.0 0.00 0.00 0.00 87 1014.2
20260505033056 9 0.0 0.0 0.00 0.00 0.00 87 1014.1
20260505032017 9 0.0 0.0 0.00 0.00 0.00 87 1014.2
20260505031018 10 135 3.2 12.9 0.00 0.00 0.00 87 1014.3
20260505030019 10 0.0 0.0 0.00 0.00 0.00 88 1014.2
20260505025050 10 0.0 0.0 0.00 0.00 0.00 87 1014.3
20260505024019 10 0.0 0.0 0.00 0.00 0.00 87 1014.4
20260505023017 10 0.0 0.0 0.00 0.00 0.00 87 1014.4
20260505022056 10 0.0 0.0 0.00 0.00 0.00 87 1014.7
20260505021017 10 0.0 0.0 0.00 0.00 0.00 87 1014.8
20260505020057 10 0.0 0.0 0.00 0.00 0.00 88 1014.9
20260505015019 10 0.0 0.0 0.00 0.00 0.00 88 1015.0
20260505014056 10 0.0 0.0 0.00 0.00 0.00 88 1015.0
20260505013039 10 0.0 0.0 0.00 0.00 0.00 88 1015.1
20260505012056 10 0.0 0.0 0.00 0.00 0.00 87 1015.1
20260505011019 10 0.0 0.0 0.00 0.00 0.00 87 1015.2
20260505010017 10 0.0 0.0 0.00 0.00 0.00 87 1015.3
20260505005018 10 0.0 0.0 0.00 0.00 0.00 87 1015.5
20260505004241 10 0.0 0.0 0.00 0.00 0.00 87 1015.6
20260505003620 10 0.0 0.0 0.00 0.00 0.00 87 1015.7
20260505002617 11 0.0 0.0 0.00 0.00 0.00 87 1015.7
20260505001640 11 0.0 0.0 0.00 0.00 0.00 86 1015.8
20260505000619 11 0.0 0.0 0.00 0.00 0.00 86 1016.0
20260504235650 11 0.0 0.0 0.00 0.00 0.00 87 1016.2
20260504234619 11 0.0 0.0 0.00 0.00 0.00 87 1016.2
20260504233656 11 0.0 0.0 0.00 0.00 0.00 86 1016.3
20260504232639 11 0.0 0.0 0.00 0.00 0.00 85 1016.3
20260504231639 11 0.0 0.0 0.00 0.00 0.00 85 1016.3
20260504230640 11 0.0 0.0 0.00 0.00 0.00 85 1016.5
20260504225656 12 0.0 0.0 0.00 0.00 0.00 85 1016.6
20260504224620 12 0.0 0.0 0.00 0.00 0.00 85 1016.5
20260504223619 12 0.0 0.0 0.00 0.00 0.00 85 1016.6
20260504222722 12 0.0 0.0 0.00 0.00 0.00 84 1016.6
20260504221656 12 0.0 0.0 0.00 0.00 0.00 84 1016.6
20260504220617 12 0.0 0.0 0.00 0.00 0.00 83 1016.6
20260504215618 13 0.0 0.0 0.00 0.00 0.00 82 1016.6
20260504214618 13 0.0 0.0 0.00 0.00 0.00 82 1016.7
20260504213617 13 0.0 0.0 0.00 0.00 0.00 82 1016.8
20260504212617 13 0.0 0.0 0.00 0.00 0.00 80 1016.7
20260504211624 14 0.0 0.0 0.00 0.00 0.00 81 1016.7
20260504210619 14 0.0 0.0 0.00 0.00 0.00 80 1016.7
20260504205619 14 0.0 0.0 0.00 0.00 0.00 80 1016.7
20260504204620 14 0.0 0.0 0.00 0.00 0.00 79 1016.7
20260504203618 15 0.0 0.0 0.00 0.00 0.00 78 1016.7
20260504202617 15 0.0 0.0 0.00 0.00 0.00 76 1016.7
20260504201637 15 0.0 0.0 0.00 0.00 0.00 76 1016.7
20260504200637 15 0.0 0.0 0.00 0.00 0.00 75 1016.7
20260504195639 15 0.0 0.0 0.00 0.00 0.00 75 1016.7
20260504194658 15 0.0 0.0 0.00 0.00 0.00 75 1016.7
20260504193619 15 0.0 0.0 0.00 0.00 0.00 74 1016.6
20260504192645 16 0.0 0.0 0.00 0.00 0.00 74 1016.5
20260504191619 16 0.0 0.0 0.00 0.00 0.00 73 1016.5
20260504190623 16 0.0 0.0 0.00 0.00 0.00 72 1016.3
20260504185617 17 0.0 0.0 0.00 0.00 0.00 70 1016.3
20260504184650 18 0.0 0.0 0.00 0.00 0.00 67 1016.3
20260504183655 18 0.0 0.0 0.00 0.00 0.00 64 1016.1
20260504182624 19 0.0 0.0 0.00 0.00 0.00 62 1016.0
20260504181624 20 0.0 0.0 0.00 0.00 0.00 60 1015.9
20260504180655 20 0.0 0.0 0.00 0.00 0.00 58 1015.9
20260504175617 20 0.0 0.0 0.00 0.00 0.00 56 1015.8
20260504174617 20 0.0 0.0 0.00 0.00 0.00 56 1015.8
20260504173619 21 0.0 0.0 0.00 0.00 0.00 57 1015.7
20260504172657 21 0.0 0.0 0.00 0.00 0.00 57 1015.7
20260504171619 21 0.0 0.0 0.00 0.00 0.00 57 1015.7
20260504170624 21 0.0 0.0 0.00 0.00 0.00 57 1015.6
20260504150617 23 203 1.6 8.0 0.00 0.00 0.00 48 1016.0
20260504140701 23 180 9.7 19.3 0.00 0.00 0.00 48 1016.3
20260504130319 25 203 12.9 17.7 0.00 0.00 0.00 39 1016.8
20260504110438 25 203 3.2 14.5 0.00 0.00 0.00 36 1017.2
20260504100337 24 0.0 0.0 0.00 0.00 0.00 34 1017.8
20260504081340 23 0.0 0.0 0.00 0.00 0.00 45 1017.8
20260504080317 22 0.0 0.0 0.00 0.00 0.00 50 1017.8
20260504070356 18 0.0 0.0 0.00 0.00 0.00 57 1017.5